Location: Medlow Airstrip Trail, Medlow Bath NSW 2780, Australia
(33.6682°S, 150.3233°E)
Time: 00:49:09
(UTC+11:00)

ISS - Visible Passes

Search period start: 18 January 2021 00:00
Search period end: 28 January 2021 00:00
Orbit: 418 x 419 km, 51.6° (Epoch: 17 January)

Date Brightness Start Highest point End Pass type
(mag) Time Alt. Az. Time Alt. Az. Time Alt. Az.
21 Jan -1.1 05:22:19 10° NNE 05:24:21 15° NE 05:26:24 10° E visible
23 Jan -3.2 05:22:14 11° NNW 05:25:19 53° NE 05:28:40 10° SE visible
24 Jan -2.2 04:36:37 23° NNE 04:37:38 27° NE 04:40:35 10° ESE visible
25 Jan -1.0 03:50:55 13° ENE 03:50:55 13° ENE 03:51:59 10° E visible
25 Jan -2.9 05:23:52 14° WNW 05:26:29 41° SW 05:29:45 10° SSE visible
26 Jan -3.8 04:38:05 58° WNW 04:38:39 78° SW 04:42:04 10° SE visible
27 Jan -1.9 03:52:13 30° ESE 03:52:13 30° ESE 03:54:11 10° SE visible
27 Jan -1.5 05:25:37 10° WSW 05:27:52 16° SSW 05:30:07 10° S visible
